San Jose, Costa Rica

10:23 PM CST on November 27, 2014 (GMT -0600)
Juan Santamaria International | Change Station
CLOSE
Current Station
Airport
Location: San Jose,
Elevation: 3018 ft
Nearby Weather Stations

Elev 3018 ft 9.99 °N, 84.21 °W | Updated 23 minutes ago

Clear
Clear
70 °F
Feels Like 70 °F
N
12
Wind Variable Wind from East

Today
High -- | Low -- °F
--% Chance of Precip.
Yesterday
High -- | Low -- °F
Precip. -- in
5:36 AM 5:12 PM
Waxing Crescent, 36% visible
Pressure 29.98 in
Visibility -9999.0 miles
Clouds
Dew Point 61 °F
Humidity 73%
Rainfall 0.00 in
Snow Depth Not available.
UV Not available.
Pollen Not available.
Air Quality Not available.
Flu Activity Not available.
METAR MROC 280400Z 08010KT CAVOK 21/16 A2998 NOSIG

More Conditions Fewer Conditions

Pressure 29.98 in
Visibility -9999.0 miles
Clouds
Dew Point 61 °F
Humidity 73%
Rainfall 0.00 in
Snow Depth Not available.
UV Not available.
Pollen Not available.
Air Quality Not available.
Flu Activity Not available.
METAR MROC 280400Z 08010KT CAVOK 21/16 A2998 NOSIG

More Conditions Fewer Conditions

10-Day Weather Forecast

Almanac

Astronomy

Nov. 27, 2014 Rise Set
Actual Time
Civil Twilight
Nautical Twilight
Astronomical Twilight
Moon
Length of Visible Light
Length of Day
Tomorrow will be .
, % of the Moon is Illuminated

Today's Extremes

Country Highs Country Lows

Community

WunderPhotos

Upload Photos

1,774,180 photos uploaded!

WunderBlogs® & News

Nearby

Air Quality

  Air Quality AQ Index Pollutant
Not available.

Snow Depth

Station Depth Elevation

Earthquake Activity

City Distance Mag. Time & Date
Minimum magnitude displayed is 2.5.

Coastal Water Temperatures

Place Temperature

Nearby Weather Stations